Date String (YYYY-MM-DD hh:mm:ss) UTC,Instrument flags,absolute air pressure of the measurement (hPa),sample flow rate (lpm),inlet stack bypass flow (lpm),air temperature of the measurement (°C),ambient temperature measured by the external sensor (°C),aerosol sample conditioner tube jacket temperature (°C),OPC LED temperature (°C),internal box temperature (°C),relative humidity of the measurement (%),span deviation,mass concentration of particles derived from Lorenz-Mie calculation of OPC scattering (μg/m³),mass concentration of particles derived from Lorenz-Mie calculation of OPC scattering (μg/m³),mass concentration of particles derived from Lorenz-Mie calculation of OPC scattering (μg/m³)
DateTimeUTC,F1_M11,P_M11,Q1_M11,Q2_M11,T1_M11,T2_M11,T3_M11,T4_M11,T5_M11,U1_M11,ZSPAN_M11,X0_M11,X2_M11,X1_M11
2023-10-12 06:00:00,SystemResetWarning,0814.7,4.99,000.00,029.2,027.8,000.0,037.7,030.8,20.3,0000.0,0001.47,0000.70,0000.48
2023-10-12 06:01:00,SystemResetWarning,0814.7,5.00,000.00,029.2,027.7,000.0,037.7,030.8,20.3,0000.0,0001.52,0000.71,0000.48
2023-10-12 06:02:00,SystemResetWarning,0814.7,5.00,000.00,029.2,027.7,000.0,037.7,030.8,20.2,0000.0,0001.55,0000.72,0000.48
2023-10-12 06:03:00,SystemResetWarning,0814.7,5.00,000.00,029.2,027.7,000.0,037.7,030.8,20.2,0000.0,0001.52,0000.71,0000.48
2023-10-12 06:04:00,SystemResetWarning,0814.6,5.00,000.00,029.2,027.7,000.0,037.7,030.8,20.2,0000.0,0001.60,0000.74,0000.48
2023-10-12 06:05:00,SystemResetWarning,0814.7,5.00,000.00,029.2,027.7,000.0,037.7,030.8,20.3,0000.0,0001.61,0000.75,0000.48
2023-10-12 06:06:00,SystemResetWarning,0814.6,5.01,000.00,029.2,027.7,000.0,037.7,030.8,20.2,0000.0,0001.56,0000.74,0000.48
2023-10-12 06:07:00,SystemResetWarning,0814.6,5.00,000.00,029.2,027.7,000.0,037.7,030.8,20.1,0000.0,0001.54,0000.74,0000.48
2023-10-12 06:08:00,SystemResetWarning,0814.6,5.01,000.00,029.2,027.7,000.0,037.7,030.8,20.1,0000.0,0001.59,0000.74,0000.49
2023-10-12 06:09:00,SystemResetWarning,0814.6,5.00,000.00,029.2,027.7,000.0,037.7,030.8,20.2,0000.0,0001.35,0000.72,0000.49
2023-10-12 06:10:00,SystemResetWarning,0814.6,5.00,000.00,029.2,027.7,000.0,037.7,030.8,20.2,0000.0,0002.01,0000.68,0000.48
2023-10-12 06:11:00,SystemResetWarning,0814.6,5.00,000.00,029.2,027.7,000.0,037.7,030.8,20.1,0000.0,0001.99,0000.67,0000.48
2023-10-12 06:12:00,SystemResetWarning,0814.5,5.00,000.00,029.2,027.6,000.0,037.7,030.8,20.0,0000.0,0001.92,0000.65,0000.48
2023-10-12 06:13:00,SystemResetWarning,0814.5,5.00,000.00,029.2,027.6,000.0,037.7,030.8,20.0,0000.0,0001.88,0000.63,0000.48
2023-10-12 06:14:00,SystemResetWarning,0814.5,5.00,000.00,029.2,027.6,000.0,037.7,030.8,20.1,0000.0,0001.90,0000.64,0000.48
2023-10-12 06:15:00,SystemResetWarning,0814.5,5.00,000.00,029.2,027.6,000.0,037.7,030.8,20.1,0000.0,0001.81,0000.61,0000.49
2023-10-12 06:16:00,SystemResetWarning,0814.4,5.00,000.00,029.2,027.6,000.0,037.7,030.8,20.2,0000.0,0001.79,0000.59,0000.48
2023-10-12 06:17:00,SystemResetWarning,0814.4,5.01,000.00,029.2,027.6,000.0,037.7,030.8,20.2,0000.0,0001.74,0000.57,0000.48
2023-10-12 06:18:00,SystemResetWarning,0814.4,5.00,000.00,029.2,027.6,000.0,037.7,030.8,20.2,0000.0,0001.75,0000.58,0000.49
2023-10-12 06:19:00,SystemResetWarning,0814.4,5.00,000.00,029.2,027.6,000.0,037.7,030.7,20.2,0000.0,0001.74,0000.59,0000.48
2023-10-12 06:20:00,SystemResetWarning,0814.4,5.00,000.00,029.2,027.6,000.0,037.7,030.8,20.2,0000.0,0001.78,0000.61,0000.48
2023-10-12 06:21:00,SystemResetWarning,0814.4,4.99,000.00,029.2,027.6,000.0,037.7,030.8,20.2,0000.0,0001.06,0000.66,0000.49
2023-10-12 06:22:00,SystemResetWarning,0814.3,5.00,000.00,029.2,027.7,000.0,037.7,030.8,20.2,0000.0,0001.15,0000.71,0000.50
2023-10-12 06:23:00,SystemResetWarning,0814.4,5.00,000.00,029.2,027.7,000.0,037.7,030.8,20.2,0000.0,0001.23,0000.75,0000.51
2023-10-12 06:24:00,SystemResetWarning,0814.4,5.00,000.00,029.2,027.7,000.0,037.7,030.8,20.2,0000.0,0001.32,0000.78,0000.52
2023-10-12 06:25:00,SystemResetWarning,0814.4,5.00,000.00,029.2,027.7,000.0,037.7,030.8,20.3,0000.0,0001.30,0000.78,0000.53
2023-10-12 06:26:00,SystemResetWarning,0814.4,5.00,000.00,029.2,027.7,000.0,037.7,030.8,20.3,0000.0,0001.38,0000.82,0000.54
2023-10-12 06:27:00,SystemResetWarning,0814.3,5.00,000.00,029.2,027.7,000.0,037.7,030.8,20.4,0000.0,0001.39,0000.84,0000.56
2023-10-12 06:28:00,SystemResetWarning,0814.3,5.01,000.00,029.2,027.7,000.0,037.7,030.8,20.5,0000.0,0001.41,0000.86,0000.57
2023-10-12 06:29:00,SystemResetWarning,0814.3,5.00,000.00,029.2,027.7,000.0,037.7,030.8,20.6,0000.0,0001.42,0000.87,0000.58
2023-10-12 06:30:00,SystemResetWarning,0814.3,5.00,000.00,029.2,027.7,000.0,037.7,030.8,20.7,0000.0,0001.47,0000.89,0000.60
2023-10-12 06:31:00,SystemResetWarning,0814.3,5.00,000.00,029.2,027.7,000.0,037.7,030.8,20.8,0000.0,0001.50,0000.91,0000.62
2023-10-12 06:32:00,SystemResetWarning,0814.2,5.01,000.00,029.2,027.7,000.0,037.7,030.8,20.8,0000.0,0001.47,0000.90,0000.64
2023-10-12 06:33:00,SystemResetWarning,0814.2,5.00,000.00,029.2,027.7,000.0,037.7,030.8,20.8,0000.0,0001.32,0000.85,0000.64
2023-10-12 06:34:00,SystemResetWarning,0814.2,5.00,000.00,029.2,027.7,000.0,037.7,030.8,20.8,0000.0,0001.28,0000.84,0000.65
2023-10-12 06:35:00,SystemResetWarning,0814.2,5.00,000.00,029.2,027.7,000.0,037.7,030.8,20.8,0000.0,0001.27,0000.86,0000.66
2023-10-12 06:36:00,SystemResetWarning,0814.2,5.00,000.00,029.2,027.7,000.0,037.7,030.8,20.8,0000.0,0001.30,0000.89,0000.66
2023-10-12 06:37:00,SystemResetWarning,0814.3,5.00,000.00,029.2,027.7,000.0,037.7,030.8,20.9,0000.0,0001.27,0000.87,0000.66
2023-10-12 06:38:00,SystemResetWarning,0814.3,5.00,000.00,029.2,027.7,000.0,037.7,030.9,20.9,0000.0,0001.29,0000.89,0000.66
2023-10-12 06:39:00,SystemResetWarning,0814.3,4.99,000.00,029.2,027.7,000.0,037.7,030.8,20.9,0000.0,0001.40,0000.95,0000.67
2023-10-12 06:40:00,SystemResetWarning,0814.3,5.00,000.00,029.2,027.7,000.0,037.7,030.8,20.9,0000.0,0001.56,0000.96,0000.67
2023-10-12 06:41:00,SystemResetWarning,0814.3,5.00,000.00,029.2,027.7,000.0,037.7,030.8,20.9,0000.0,0001.58,0000.94,0000.66
2023-10-12 06:42:00,SystemResetWarning,0814.3,5.00,000.00,029.2,027.7,000.0,037.7,030.8,20.9,0000.0,0001.55,0000.90,0000.65
2023-10-12 06:43:00,SystemResetWarning,0814.3,5.00,000.00,029.2,027.7,000.0,037.7,030.8,20.9,0000.0,0002.27,0000.89,0000.64
2023-10-12 06:44:00,SystemResetWarning,0814.3,5.00,000.00,029.2,027.7,000.0,037.7,030.8,20.9,0000.0,0002.32,0000.88,0000.63
2023-10-12 06:45:00,SystemResetWarning,0814.3,5.01,000.00,029.2,027.7,000.0,037.7,030.9,20.9,0000.0,0002.34,0000.88,0000.62
2023-10-12 06:46:00,SystemResetWarning,0814.4,5.01,000.00,029.2,027.7,000.0,037.7,030.9,20.9,0000.0,0002.33,0000.87,0000.62
2023-10-12 06:47:00,SystemResetWarning,0814.3,5.00,000.00,029.2,027.7,000.0,037.7,030.9,20.9,0000.0,0002.33,0000.86,0000.62
2023-10-12 06:48:00,SystemResetWarning,0814.3,5.00,000.00,029.2,027.7,000.0,037.7,030.9,20.9,0000.0,0002.40,0000.87,0000.63
2023-10-12 06:49:00,SystemResetWarning,0814.3,5.00,000.00,029.2,027.7,000.0,037.7,030.9,20.9,0000.0,0002.35,0000.85,0000.64
2023-10-12 06:50:00,SystemResetWarning,0814.4,5.00,000.00,029.2,027.7,000.0,037.7,030.9,20.9,0000.0,0002.35,0000.83,0000.64
2023-10-12 06:51:00,SystemResetWarning,0814.5,5.00,000.00,029.2,027.7,000.0,037.7,030.9,21.0,0000.0,0002.20,0000.83,0000.64
2023-10-12 06:52:00,SystemResetWarning,0814.6,5.00,000.00,029.2,027.7,000.0,037.7,030.9,21.0,0000.0,0002.16,0000.83,0000.64
2023-10-12 06:53:00,SystemResetWarning,0814.6,5.00,000.00,029.2,027.7,000.0,037.7,030.9,21.0,0000.0,0002.19,0000.86,0000.64
2023-10-12 06:54:00,SystemResetWarning,0814.6,5.00,000.00,029.2,027.7,000.0,037.7,030.9,21.0,0000.0,0001.41,0000.84,0000.63
2023-10-12 06:55:00,SystemResetWarning,0814.6,5.00,000.00,029.2,027.7,000.0,037.7,030.8,20.9,0000.0,0001.41,0000.86,0000.63
2023-10-12 06:56:00,SystemResetWarning,0814.6,5.00,000.00,029.2,027.7,000.0,037.7,030.8,20.9,0000.0,0001.41,0000.86,0000.64
2023-10-12 06:57:00,SystemResetWarning,0814.6,5.00,000.00,029.2,027.7,000.0,037.7,030.8,20.9,0000.0,0001.39,0000.85,0000.64
2023-10-12 06:58:00,SystemResetWarning,0814.5,5.00,000.00,029.2,027.7,000.0,037.7,030.8,20.9,0000.0,0001.34,0000.83,0000.63
2023-10-12 06:59:00,SystemResetWarning,0814.5,5.00,000.00,029.2,027.7,000.0,037.7,030.8,20.9,0000.0,0001.19,0000.78,0000.62
